EWG12S EDDH-ENBR

Flight info

Callsign EWG12S
Flight time 1h 13m
Altitude 37000
Route SOKWO1C SOKWO T814 EXNEL M105 AMRAK DCT RASVI/N0436F360 DCT PEVEB/N0448F380 DCT BADAB
Aircraft A320/M-SDE3FGHIRWY/LB1

Departure

Time 2026-05-06 13:05
Airport Hamburg Helmut Schmidt Airport (EDDH)

Arrival

Time 2026-05-06 14:19
Airport Bergen Airport, Flesland (ENBR)
Time Latitude Longitude Altitude Speed Heading
2026-05-06 12:28 53.62892 10.00213 49 ft 0 kts 122°
2026-05-06 12:56 53.62893 10.00210 51 ft 3 kts 122°
2026-05-06 12:57 53.62906 10.00175 47 ft 4 kts 122°
2026-05-06 12:57 53.62919 10.00139 47 ft 4 kts 122°
2026-05-06 12:57 53.62933 10.00103 51 ft 3 kts 122°
2026-05-06 12:57 53.62944 10.00076 47 ft 4 kts 146°
2026-05-06 12:58 53.62962 10.00069 49 ft 4 kts 208°
2026-05-06 12:58 53.62974 10.00081 47 ft 1 kts 212°
2026-05-06 13:00 53.62957 10.00063 50 ft 5 kts 212°
2026-05-06 13:01 53.62911 10.00038 50 ft 10 kts 177°
2026-05-06 13:01 53.62820 9.99977 50 ft 16 kts 211°
2026-05-06 13:01 53.62715 9.99880 47 ft 20 kts 208°
2026-05-06 13:01 53.62632 9.99704 48 ft 20 kts 257°
2026-05-06 13:02 53.62605 9.99462 47 ft 20 kts 259°
2026-05-06 13:02 53.62579 9.99237 51 ft 19 kts 259°
2026-05-06 13:02 53.62556 9.99034 51 ft 17 kts 259°
2026-05-06 13:02 53.62535 9.98845 47 ft 16 kts 258°
2026-05-06 13:03 53.62513 9.98659 51 ft 19 kts 259°
2026-05-06 13:03 53.62484 9.98408 51 ft 24 kts 259°
2026-05-06 13:03 53.62436 9.98120 50 ft 27 kts 243°
2026-05-06 13:03 53.62313 9.97854 50 ft 30 kts 228°
2026-05-06 13:04 53.62203 9.97632 50 ft 23 kts 232°
2026-05-06 13:04 53.62213 9.97404 50 ft 20 kts 311°
2026-05-06 13:04 53.62335 9.97411 46 ft 20 kts 47°
2026-05-06 13:04 53.62470 9.97681 47 ft 57 kts 51°
2026-05-06 13:05 53.62868 9.98487 50 ft 119 kts 50°
2026-05-06 13:05 53.63506 9.99770 98 ft 162 kts 49°
2026-05-06 13:05 53.64254 10.01236 699 ft 164 kts 50°
2026-05-06 13:05 53.64975 10.02703 1438 ft 165 kts 50°
2026-05-06 13:06 53.65750 10.04290 1847 ft 187 kts 51°
2026-05-06 13:06 53.66595 10.06027 2590 ft 194 kts 51°
2026-05-06 13:06 53.67452 10.07790 3455 ft 196 kts 52°
2026-05-06 13:06 53.68327 10.09586 4238 ft 201 kts 52°
2026-05-06 13:07 53.69229 10.11438 4967 ft 207 kts 52°
2026-05-06 13:07 53.70154 10.13333 5738 ft 211 kts 52°
2026-05-06 13:07 53.71103 10.15271 6478 ft 216 kts 52°
2026-05-06 13:07 53.72223 10.17003 7143 ft 223 kts 32°
2026-05-06 13:08 53.73694 10.17919 7791 ft 235 kts 11°
2026-05-06 13:08 53.75412 10.17760 8130 ft 262 kts 347°
2026-05-06 13:08 53.77250 10.16991 8641 ft 278 kts 346°
2026-05-06 13:08 53.79147 10.16193 9422 ft 284 kts 346°
2026-05-06 13:09 53.81084 10.15414 10164 ft 291 kts 347°
2026-05-06 13:09 53.83141 10.14613 10437 ft 315 kts 347°
2026-05-06 13:09 53.85324 10.13768 10914 ft 327 kts 347°
2026-05-06 13:09 53.87567 10.12899 11585 ft 334 kts 347°
2026-05-06 13:10 53.89854 10.12014 12284 ft 340 kts 346°
2026-05-06 13:10 53.92186 10.11113 12963 ft 346 kts 346°
2026-05-06 13:10 53.94556 10.10194 13600 ft 353 kts 346°
2026-05-06 13:10 53.96967 10.09254 14221 ft 358 kts 346°
2026-05-06 13:11 53.99400 10.08301 14892 ft 360 kts 345°
2026-05-06 13:11 54.01859 10.07335 15469 ft 365 kts 346°
2026-05-06 13:11 54.04354 10.06355 16084 ft 369 kts 345°
2026-05-06 13:11 54.06866 10.05366 16742 ft 372 kts 345°
2026-05-06 13:12 54.09398 10.04362 17436 ft 374 kts 345°
2026-05-06 13:12 54.11948 10.03356 18073 ft 377 kts 345°
2026-05-06 13:12 54.14513 10.02343 18636 ft 381 kts 344°
2026-05-06 13:12 54.17110 10.01318 19167 ft 384 kts 345°
2026-05-06 13:13 54.19723 10.00284 19716 ft 387 kts 344°
2026-05-06 13:13 54.22354 9.99241 20247 ft 390 kts 345°
2026-05-06 13:13 54.24976 9.98201 20762 ft 393 kts 344°
2026-05-06 13:13 54.27687 9.97123 21288 ft 396 kts 345°
2026-05-06 13:14 54.30377 9.96055 21811 ft 399 kts 345°
2026-05-06 13:14 54.33095 9.94975 22302 ft 402 kts 345°
2026-05-06 13:14 54.35831 9.93886 22773 ft 405 kts 344°
2026-05-06 13:14 54.38548 9.92802 22901 ft 407 kts 344°
2026-05-06 13:15 54.41303 9.91701 22916 ft 407 kts 344°
2026-05-06 13:15 54.44070 9.90589 23332 ft 409 kts 344°
2026-05-06 13:15 54.46852 9.89466 23780 ft 412 kts 344°
2026-05-06 13:15 54.49648 9.88337 24186 ft 414 kts 344°
2026-05-06 13:16 54.52470 9.87203 24580 ft 417 kts 344°
2026-05-06 13:16 54.55301 9.86071 24948 ft 420 kts 345°
2026-05-06 13:16 54.58160 9.84924 25331 ft 423 kts 345°
2026-05-06 13:16 54.61030 9.83767 25715 ft 425 kts 344°
2026-05-06 13:17 54.63921 9.82597 26092 ft 428 kts 344°
2026-05-06 13:17 54.66827 9.81422 26464 ft 430 kts 344°
2026-05-06 13:17 54.69749 9.80239 26805 ft 433 kts 344°
2026-05-06 13:17 54.72687 9.79045 26892 ft 433 kts 344°
2026-05-06 13:18 54.75616 9.77850 26908 ft 433 kts 344°
2026-05-06 13:18 54.78553 9.76653 26907 ft 433 kts 344°
2026-05-06 13:18 54.81475 9.75456 26907 ft 432 kts 343°
2026-05-06 13:18 54.84330 9.73856 26907 ft 430 kts 336°
2026-05-06 13:19 54.87134 9.72029 26921 ft 430 kts 336°
2026-05-06 13:19 54.89937 9.70207 26921 ft 431 kts 336°
2026-05-06 13:19 54.92753 9.68387 26917 ft 431 kts 336°
2026-05-06 13:19 54.95565 9.66574 26919 ft 431 kts 336°
2026-05-06 13:20 54.98377 9.64758 26917 ft 431 kts 336°
2026-05-06 13:20 55.01192 9.62931 26922 ft 431 kts 336°
2026-05-06 13:20 55.04003 9.61096 26920 ft 431 kts 336°
2026-05-06 13:20 55.06814 9.59255 26924 ft 431 kts 336°
2026-05-06 13:21 55.09626 9.57411 26921 ft 431 kts 336°
2026-05-06 13:21 55.12443 9.55570 26922 ft 431 kts 336°
2026-05-06 13:21 55.15247 9.53734 26935 ft 431 kts 335°
2026-05-06 13:21 55.18065 9.51885 26925 ft 431 kts 335°
2026-05-06 13:22 55.20878 9.50039 26980 ft 433 kts 335°
2026-05-06 13:22 55.23702 9.48183 27379 ft 435 kts 335°
2026-05-06 13:22 55.26504 9.46334 27733 ft 438 kts 335°
2026-05-06 13:22 55.29367 9.44439 28088 ft 441 kts 335°
2026-05-06 13:23 55.32243 9.42532 28435 ft 443 kts 334°
2026-05-06 13:23 55.35141 9.40606 28771 ft 446 kts 335°
2026-05-06 13:23 55.38056 9.38669 29094 ft 449 kts 335°
2026-05-06 13:23 55.40992 9.36718 29433 ft 452 kts 335°
2026-05-06 13:24 55.43945 9.34758 29770 ft 455 kts 334°
2026-05-06 13:24 55.46911 9.32785 30085 ft 457 kts 334°
2026-05-06 13:24 55.49888 9.30797 30359 ft 459 kts 334°
2026-05-06 13:24 55.52882 9.28790 30645 ft 460 kts 334°
2026-05-06 13:25 55.55877 9.26786 30931 ft 462 kts 334°
2026-05-06 13:25 55.58883 9.24772 31206 ft 463 kts 334°
2026-05-06 13:25 55.61895 9.22746 31526 ft 463 kts 334°
2026-05-06 13:25 55.64905 9.20721 31935 ft 461 kts 334°
2026-05-06 13:26 55.67897 9.18709 32340 ft 459 kts 334°
2026-05-06 13:26 55.70879 9.16700 32740 ft 458 kts 334°
2026-05-06 13:26 55.73851 9.14693 33138 ft 456 kts 334°
2026-05-06 13:26 55.76812 9.12686 33534 ft 454 kts 334°
2026-05-06 13:27 55.79756 9.10685 33927 ft 453 kts 334°
2026-05-06 13:27 55.82698 9.08681 34252 ft 452 kts 334°
2026-05-06 13:27 55.85632 9.06677 34531 ft 451 kts 334°
2026-05-06 13:27 55.88565 9.04681 34804 ft 452 kts 334°
2026-05-06 13:28 55.91507 9.02678 35006 ft 453 kts 334°
2026-05-06 13:28 55.94450 9.00666 35233 ft 454 kts 334°
2026-05-06 13:28 55.97364 8.98668 35481 ft 454 kts 334°
2026-05-06 13:28 56.00307 8.96644 35749 ft 453 kts 334°
2026-05-06 13:29 56.03251 8.94613 36006 ft 453 kts 334°
2026-05-06 13:29 56.06183 8.92587 36245 ft 452 kts 334°
2026-05-06 13:29 56.09117 8.90556 36488 ft 452 kts 334°
2026-05-06 13:29 56.12054 8.88525 36726 ft 452 kts 334°
2026-05-06 13:30 56.14983 8.86501 36897 ft 452 kts 334°
2026-05-06 13:30 56.20835 8.82449 36951 ft 449 kts 334°
2026-05-06 13:31 56.26662 8.78405 36966 ft 449 kts 333°
2026-05-06 13:31 56.32479 8.74349 36954 ft 448 kts 333°
2026-05-06 13:32 56.38287 8.70270 36958 ft 448 kts 333°
2026-05-06 13:32 56.44095 8.66176 36978 ft 448 kts 333°
2026-05-06 13:33 56.49895 8.62078 36968 ft 447 kts 333°
2026-05-06 13:33 56.55692 8.57980 37002 ft 447 kts 333°
2026-05-06 13:34 56.61487 8.53883 36988 ft 447 kts 333°
2026-05-06 13:34 56.67274 8.49756 36990 ft 447 kts 333°
2026-05-06 13:35 56.73060 8.45614 36983 ft 447 kts 333°
2026-05-06 13:35 56.78844 8.41482 36993 ft 447 kts 333°
2026-05-06 13:36 56.84628 8.37323 37021 ft 447 kts 333°
2026-05-06 13:36 56.90407 8.33150 37014 ft 446 kts 333°
2026-05-06 13:37 56.95209 8.29674 37006 ft 446 kts 333°
2026-05-06 13:37 57.00973 8.25479 37043 ft 446 kts 333°
2026-05-06 13:38 57.07681 8.20590 37026 ft 446 kts 333°
2026-05-06 13:38 57.12513 8.17064 37045 ft 445 kts 332°
2026-05-06 13:39 57.18268 8.12845 37026 ft 445 kts 332°
2026-05-06 13:39 57.24018 8.08616 37025 ft 445 kts 332°
2026-05-06 13:40 57.30592 8.03353 37020 ft 439 kts 326°
2026-05-06 13:40 57.35064 7.98908 37020 ft 439 kts 326°
2026-05-06 13:41 57.40441 7.93543 37050 ft 439 kts 325°
2026-05-06 13:41 57.45827 7.88178 37042 ft 439 kts 325°
2026-05-06 13:42 57.51215 7.82803 37032 ft 439 kts 325°
2026-05-06 13:42 57.56586 7.77406 37047 ft 438 kts 325°
2026-05-06 13:43 57.61945 7.71980 37031 ft 438 kts 325°
2026-05-06 13:43 57.67305 7.66556 37022 ft 438 kts 325°
2026-05-06 13:44 57.72664 7.61122 37037 ft 438 kts 325°
2026-05-06 13:44 57.78013 7.55652 37028 ft 438 kts 325°
2026-05-06 13:45 57.83369 7.50173 37019 ft 438 kts 325°
2026-05-06 13:45 57.91366 7.41973 37016 ft 438 kts 324°
2026-05-06 13:46 57.96713 7.36469 37007 ft 438 kts 325°
2026-05-06 13:46 58.02057 7.30950 36999 ft 437 kts 325°
2026-05-06 13:47 58.07379 7.25435 36977 ft 436 kts 325°
2026-05-06 13:47 58.12697 7.19881 36977 ft 437 kts 324°
2026-05-06 13:48 58.18015 7.14315 36977 ft 437 kts 325°
2026-05-06 13:48 58.23338 7.08747 36974 ft 437 kts 324°
2026-05-06 13:49 58.28658 7.03142 37013 ft 437 kts 324°
2026-05-06 13:49 58.33973 6.97530 37005 ft 437 kts 324°
2026-05-06 13:50 58.39284 6.91901 37000 ft 437 kts 324°
2026-05-06 13:50 58.44591 6.86259 37001 ft 437 kts 324°
2026-05-06 13:51 58.49878 6.80531 37006 ft 434 kts 320°
2026-05-06 13:51 58.54806 6.73963 37018 ft 432 kts 319°
2026-05-06 13:52 58.59681 6.67403 37015 ft 431 kts 319°
2026-05-06 13:52 58.64585 6.60786 37018 ft 431 kts 319°
2026-05-06 13:53 58.69498 6.54152 36938 ft 432 kts 319°
2026-05-06 13:53 58.71950 6.50824 36681 ft 431 kts 318°
2026-05-06 13:53 58.74401 6.47495 36426 ft 430 kts 318°
2026-05-06 13:54 58.76847 6.44165 36175 ft 430 kts 318°
2026-05-06 13:54 58.79285 6.40842 35929 ft 429 kts 318°
2026-05-06 13:54 58.81715 6.37525 35682 ft 427 kts 318°
2026-05-06 13:54 58.84132 6.34217 35437 ft 425 kts 317°
2026-05-06 13:55 58.86534 6.30918 35222 ft 422 kts 317°
2026-05-06 13:55 58.88921 6.27634 35024 ft 419 kts 317°
2026-05-06 13:55 58.91291 6.24378 34798 ft 417 kts 317°
2026-05-06 13:55 58.93652 6.21129 34564 ft 414 kts 317°
2026-05-06 13:56 58.95995 6.17924 34332 ft 412 kts 317°
2026-05-06 13:56 58.98328 6.14715 34102 ft 410 kts 316°
2026-05-06 13:56 59.00640 6.11508 33839 ft 407 kts 316°
2026-05-06 13:56 59.02915 6.08330 33008 ft 412 kts 316°
2026-05-06 13:57 59.05267 6.05109 32323 ft 416 kts 320°
2026-05-06 13:57 59.07858 6.02540 31843 ft 421 kts 330°
2026-05-06 13:57 59.10700 6.00933 31312 ft 429 kts 341°
2026-05-06 13:57 59.13625 5.99861 30797 ft 426 kts 341°
2026-05-06 13:58 59.16524 5.98786 30291 ft 422 kts 341°
2026-05-06 13:58 59.19394 5.97701 29803 ft 419 kts 340°
2026-05-06 13:58 59.22245 5.96606 29265 ft 415 kts 339°
2026-05-06 13:58 59.25053 5.95520 28809 ft 408 kts 339°
2026-05-06 13:59 59.27821 5.94452 28349 ft 403 kts 340°
2026-05-06 13:59 59.30558 5.93405 27891 ft 398 kts 340°
2026-05-06 13:59 59.33254 5.92377 27450 ft 392 kts 340°
2026-05-06 13:59 59.35922 5.91354 26962 ft 388 kts 339°
2026-05-06 14:00 59.38572 5.90180 25948 ft 392 kts 337°
2026-05-06 14:00 59.41172 5.88840 25209 ft 381 kts 336°
2026-05-06 14:00 59.43692 5.87451 24653 ft 367 kts 335°
2026-05-06 14:00 59.46094 5.86102 24260 ft 354 kts 335°
2026-05-06 14:01 59.48456 5.84769 23826 ft 352 kts 334°
2026-05-06 14:01 59.50806 5.83458 23300 ft 351 kts 335°
2026-05-06 14:01 59.53146 5.82173 22838 ft 347 kts 335°
2026-05-06 14:01 59.55459 5.80919 22401 ft 343 kts 335°
2026-05-06 14:02 59.57723 5.79702 21966 ft 339 kts 335°
2026-05-06 14:02 59.59989 5.78483 21546 ft 336 kts 335°
2026-05-06 14:02 59.62259 5.77260 21108 ft 333 kts 335°
2026-05-06 14:02 59.64480 5.76059 20705 ft 329 kts 335°
2026-05-06 14:03 59.66647 5.74882 20308 ft 326 kts 335°
2026-05-06 14:03 59.68825 5.73699 19905 ft 324 kts 335°
2026-05-06 14:03 59.70989 5.72524 19501 ft 322 kts 335°
2026-05-06 14:03 59.73144 5.71350 19106 ft 320 kts 336°
2026-05-06 14:04 59.75286 5.70185 18688 ft 319 kts 336°
2026-05-06 14:04 59.77420 5.69017 18283 ft 319 kts 335°
2026-05-06 14:04 59.79556 5.67847 17831 ft 318 kts 335°
2026-05-06 14:04 59.81680 5.66693 17441 ft 315 kts 336°
2026-05-06 14:05 59.83784 5.65547 17046 ft 313 kts 336°
2026-05-06 14:05 59.85874 5.64404 16675 ft 310 kts 336°
2026-05-06 14:05 59.87946 5.63268 16309 ft 308 kts 336°
2026-05-06 14:05 59.90011 5.62129 15946 ft 306 kts 336°
2026-05-06 14:06 59.92052 5.61000 15585 ft 304 kts 337°
2026-05-06 14:06 59.94086 5.59877 15231 ft 302 kts 337°
2026-05-06 14:06 59.96110 5.58756 14861 ft 302 kts 337°
2026-05-06 14:06 59.98125 5.57644 14506 ft 300 kts 338°
2026-05-06 14:07 60.00137 5.56535 14151 ft 300 kts 338°
2026-05-06 14:07 60.02148 5.55422 13779 ft 299 kts 338°
2026-05-06 14:07 60.04151 5.54309 13395 ft 298 kts 339°
2026-05-06 14:07 60.06142 5.53205 13053 ft 296 kts 339°
2026-05-06 14:08 60.08122 5.52107 12661 ft 295 kts 340°
2026-05-06 14:08 60.10093 5.51009 12296 ft 293 kts 340°
2026-05-06 14:08 60.12059 5.49907 11510 ft 304 kts 341°
2026-05-06 14:08 60.14132 5.48744 10930 ft 309 kts 342°
2026-05-06 14:09 60.16173 5.47605 10370 ft 302 kts 342°
2026-05-06 14:09 60.18196 5.46479 9688 ft 299 kts 342°
2026-05-06 14:09 60.20149 5.45388 9223 ft 286 kts 342°
2026-05-06 14:09 60.22048 5.44330 8718 ft 277 kts 342°
2026-05-06 14:10 60.23864 5.43318 8460 ft 264 kts 342°
2026-05-06 14:10 60.25591 5.42356 8102 ft 251 kts 341°
2026-05-06 14:10 60.27263 5.41413 7753 ft 251 kts 342°
2026-05-06 14:10 60.28947 5.40457 7372 ft 251 kts 341°
2026-05-06 14:11 60.30631 5.39498 6999 ft 250 kts 342°
2026-05-06 14:11 60.32302 5.38551 6621 ft 249 kts 341°
2026-05-06 14:11 60.33972 5.37613 6223 ft 249 kts 342°
2026-05-06 14:11 60.35637 5.36676 5837 ft 248 kts 341°
2026-05-06 14:12 60.37298 5.35732 5442 ft 248 kts 341°
2026-05-06 14:12 60.38963 5.34789 5052 ft 248 kts 342°
2026-05-06 14:12 60.40629 5.33844 4624 ft 248 kts 341°
2026-05-06 14:12 60.42293 5.32898 4230 ft 249 kts 341°
2026-05-06 14:13 60.43966 5.31944 4007 ft 251 kts 341°
2026-05-06 14:13 60.45585 5.31028 3997 ft 237 kts 342°
2026-05-06 14:13 60.47123 5.30122 3996 ft 225 kts 336°
2026-05-06 14:13 60.48386 5.28375 3991 ft 220 kts 309°
2026-05-06 14:14 60.49111 5.25688 3656 ft 219 kts 283°
2026-05-06 14:14 60.49160 5.22638 3576 ft 222 kts 259°
2026-05-06 14:14 60.48594 5.19780 3569 ft 214 kts 237°
2026-05-06 14:14 60.47575 5.17719 3549 ft 203 kts 215°
2026-05-06 14:15 60.46297 5.16609 3413 ft 200 kts 194°
2026-05-06 14:15 60.44913 5.16547 3202 ft 199 kts 174°
2026-05-06 14:15 60.43561 5.17009 2931 ft 195 kts 174°
2026-05-06 14:15 60.42226 5.17465 2662 ft 194 kts 174°
2026-05-06 14:16 60.40900 5.17915 2396 ft 191 kts 174°
2026-05-06 14:16 60.39637 5.18344 2135 ft 179 kts 174°
2026-05-06 14:16 60.38448 5.18748 1906 ft 165 kts 175°
2026-05-06 14:16 60.37373 5.19116 1627 ft 151 kts 174°
2026-05-06 14:17 60.36368 5.19471 1376 ft 142 kts 175°
2026-05-06 14:17 60.35402 5.19776 1222 ft 141 kts 176°
2026-05-06 14:17 60.34436 5.20089 994 ft 139 kts 175°
2026-05-06 14:17 60.33494 5.20448 817 ft 136 kts 174°
2026-05-06 14:18 60.32569 5.20762 678 ft 133 kts 177°
2026-05-06 14:18 60.31682 5.21051 485 ft 126 kts 176°
2026-05-06 14:18 60.30807 5.21328 295 ft 130 kts 174°
2026-05-06 14:18 60.29912 5.21624 158 ft 125 kts 173°
2026-05-06 14:19 60.29183 5.21858 159 ft 82 kts 170°
2026-05-06 14:19 60.28948 5.21946 163 ft 4 kts 150°
2026-05-06 14:19 60.28913 5.22058 164 ft 11 kts 95°
2026-05-06 14:19 60.28922 5.22159 167 ft 3 kts 78°
2026-05-06 14:20 60.28922 5.22167 167 ft 0 kts 78°
2026-05-06 14:20 60.28926 5.22199 169 ft 4 kts 78°
2026-05-06 14:20 60.28908 5.22275 171 ft 9 kts 145°
2026-05-06 14:20 60.28823 5.22321 171 ft 15 kts 145°
2026-05-06 14:21 60.28832 5.22460 175 ft 9 kts 63°
2026-05-06 14:21 60.28856 5.22543 175 ft 4 kts 61°
2026-05-06 14:21 60.28863 5.22568 175 ft 0 kts 61°
2026-05-06 14:21 60.28862 5.22565 175 ft 0 kts 61°